Location: Lynch Observatory
(39.9540°N, 75.1861°W)
Time: 18:51:13
(UTC-04:00)

NANOSAT C BR1 - Visible Passes

Search period start: 18 April 2024 00:00
Search period end: 28 April 2024 00:00
Orbit: 556 x 567 km, 98.1° (Epoch: 18 April)

Date Brightness Start Highest point End Pass type
(mag) Time Alt. Az. Time Alt. Az. Time Alt. Az.
18 Apr ? 04:45:54 10° NNE 04:49:57 76° ESE 04:53:17 15° S visible
19 Apr ? 04:45:12 10° NNE 04:49:14 74° ESE 04:52:42 14° S visible
20 Apr ? 04:44:27 10° NNE 04:48:29 72° E 04:52:04 13° S visible
21 Apr ? 04:43:40 10° NNE 04:47:41 70° E 04:51:23 12° S visible
22 Apr ? 04:42:51 10° NNE 04:46:53 67° ESE 04:50:41 11° S visible
23 Apr ? 04:42:00 10° NNE 04:46:02 65° ESE 04:49:56 10° S visible
24 Apr ? 04:41:07 10° NNE 04:45:08 63° ESE 04:49:07 10° S visible
25 Apr ? 04:40:12 10° NNE 04:44:12 61° ESE 04:48:11 10° S visible
26 Apr ? 04:39:15 10° NNE 04:43:15 59° ESE 04:47:13 10° S visible
27 Apr ? 04:38:15 10° NNE 04:42:14 57° E 04:46:12 10° S visible
